Terre Haute, IN

5:59 AM EST on December 13, 2019 (GMT -0500)
Terre Haute International-Hulman

Weather History for KHUF - October, 2019

Change the Weather History Date:

Tuesday, October 1, 2019

  Actual Average Record
Temperature  
Mean Temperature 80 °F 60 °F  
Max Temperature 93 °F 72 °F 93 °F (2019)
Min Temperature 66 °F 47 °F 33 °F (1958)
Degree Days  
Heating Degree Days 0 7  
Month to date heating degree days 7  
Since 1 July heating degree days 85  
Cooling Degree Days 14 1  
Month to date cooling degree days 1  
Year to date cooling degree days 979  
Growing Degree Days 30 (Base 50)    
Moisture  
Dew Point 65 °F    
Average Humidity 65    
Maximum Humidity 90    
Minimum Humidity 37    
Precipitation  
Precipitation 0.00 in 0.11 in 2.00 in (1977)
Month to date precipitation 0.11  
Year to date precipitation 34.81  
Sea Level Pressure  
Sea Level Pressure 30.00 in    
Wind  
Wind Speed 5 mph (SSW)    
Max Wind Speed 14 mph    
Max Gust Speed 21 mph    
Visibility 10 miles    
Events      
T = Trace of Precipitation, MM = Missing Value Source: NWS Daily Summary

Daily Weather History Graph

Daily Weather History Graph

Search for Another Location

Airport or City:

Astronomy

Oct. 01, 2019 Rise Set
Actual Time 7:45 AM EDT 7:32 PM EDT
Civil Twilight 7:18 AM EDT 7:58 PM EDT
Nautical Twilight 6:47 AM EDT 8:29 PM EDT
Astronomical Twilight 6:15 AM EDT 9:01 PM EDT
Moon 10:59 AM EDT (10/1) 9:46 PM EDT (10/1)
Length of Visible Light 12h 40m
Length of Day
11h 46m
Waxing Crescent, 12% of the Moon is Illuminated
Oct 1
Waxing Crescent
Oct 5
First Quarter
Oct 13
Full
Oct 21
Last Quarter
Oct 27
New

Hourly Weather History & Observations

Time (EDT) Temp. Heat Index Dew Point Humidity Pressure Visibility Wind Dir Wind Speed Gust Speed Precip Events Conditions
12:53 AM 69.1 °F - 64.9 °F 87% 30.02 in 10.0 mi Calm Calm - N/A   Clear
1:53 AM 72.0 °F - 64.9 °F 78% 30.01 in 10.0 mi SSW 4.6 mph - N/A   Clear
2:53 AM 73.0 °F - 64.9 °F 76% 30.01 in 10.0 mi SSW 4.6 mph - N/A   Clear
3:53 AM 73.9 °F - 64.9 °F 73% 30.00 in 10.0 mi SSW 3.5 mph - N/A   Clear
4:53 AM 68.0 °F - 64.0 °F 87% 30.02 in 10.0 mi South 3.5 mph - N/A   Clear
5:53 AM 66.9 °F - 64.0 °F 90% 30.03 in 10.0 mi SSE 3.5 mph - N/A   Clear
6:53 AM 66.9 °F - 64.0 °F 90% 30.04 in 9.0 mi Calm Calm - N/A   Clear
7:53 AM 68.0 °F - 64.9 °F 90% 30.06 in 9.0 mi South 4.6 mph - N/A   Clear
8:53 AM 73.0 °F - 68.0 °F 84% 30.05 in 10.0 mi Calm Calm - N/A   Clear
9:53 AM 79.0 °F - 68.0 °F 69% 30.05 in 10.0 mi SW 9.2 mph - N/A   Clear
10:53 AM 82.9 °F 86.5 °F 69.1 °F 63% 30.05 in 10.0 mi SSW 6.9 mph - N/A   Clear
11:53 AM 87.1 °F 91.3 °F 69.1 °F 55% 30.04 in 10.0 mi SW 9.2 mph 20.7 mph N/A   Clear
12:53 PM 87.1 °F 89.2 °F 66.0 °F 49% 30.02 in 10.0 mi WSW 13.8 mph - N/A   Partly Cloudy
1:53 PM 91.9 °F 94.5 °F 66.0 °F 42% 30.02 in 10.0 mi West 11.5 mph - N/A   Scattered Clouds
2:53 PM 91.0 °F 92.6 °F 64.0 °F 41% 30.00 in 10.0 mi West 9.2 mph - N/A   Mostly Cloudy
3:53 PM 93.0 °F 94.2 °F 63.0 °F 37% 29.99 in 10.0 mi WSW 9.2 mph 18.4 mph N/A   Partly Cloudy
4:53 PM 91.0 °F 91.5 °F 62.1 °F 38% 29.97 in 10.0 mi SSW 10.4 mph - N/A   Clear
5:53 PM 91.0 °F 92.6 °F 64.0 °F 41% 29.97 in 10.0 mi South 10.4 mph - N/A   Clear
6:53 PM 87.1 °F 88.3 °F 64.0 °F 46% 29.96 in 10.0 mi South 8.1 mph - N/A   Clear
7:53 PM 81.0 °F 82.5 °F 64.0 °F 56% 29.95 in 10.0 mi South 5.8 mph - N/A   Clear
8:53 PM 77.0 °F - 64.9 °F 66% 29.95 in 10.0 mi South 4.6 mph - N/A   Clear
9:53 PM 77.0 °F - 64.9 °F 66% 29.94 in 10.0 mi South 5.8 mph - N/A   Clear
11:53 PM 78.1 °F - 64.9 °F 64% 29.94 in 10.0 mi SSW 8.1 mph - N/A   Clear